Belize, Belize

8:10 PM CST on August 21, 2017 (GMT -0600)
Philip S W Goldson International

Weather History for MZBZ - June, 2013

Change the Weather History Date:

Monday, June 17, 2013

  Actual Average Record
Temperature  
Mean Temperature 75 °F -  
Max Temperature 78 °F 88 °F 91 °F (1997)
Min Temperature 72 °F 76 °F 72 °F (2013)
Cooling Degree Days 10    
Growing Degree Days 25 (Base 50)    
Moisture  
Dew Point 75 °F    
Average Humidity 95    
Maximum Humidity 100    
Minimum Humidity 90    
Precipitation  
Precipitation 1.69 in 0.33 in - ()
Sea Level Pressure  
Sea Level Pressure 29.88 in    
Wind  
Wind Speed 11 mph ()    
Max Wind Speed 22 mph    
Max Gust Speed 37 mph    
Visibility 2.8 miles    
Events Fog , Rain    
Averages and records for this station are not official NWS values.
T = Trace of Precipitation, MM = Missing Value Source: Averaged Metar Reports

Daily Weather History Graph

Daily Weather History Graph

Search for Another Location

Airport or City:

Trip Planner

Search our weather history database for the weather conditions in past years. The results will help you decide how hot, cold, wet, or windy it might be!

Date:

Astronomy

Jun. 17, 2013 Rise Set
Actual Time 5:18 AM CST 6:29 PM CST
Civil Twilight 4:54 AM CST 6:53 PM CST
Nautical Twilight 4:26 AM CST 7:22 PM CST
Astronomical Twilight 3:56 AM CST 7:51 PM CST
Moon 12:48 PM CST (6/17) 12:08 AM CST (6/17)
Length of Visible Light 13h 58m
Length of Day
13h 10m
First Quarter, 61% of the Moon is Illuminated
Jun 17
First Quarter
Jun 23
Full
Jun 29
Last Quarter
Jul 8
New
Jul 15
First Quarter

Hourly Weather History & Observations

Time (CST) Temp. Dew Point Humidity Pressure Visibility Wind Dir Wind Speed Gust Speed Precip Events Conditions
2:10 AM 75.2 °F 75.2 °F 100% 29.89 in 0.3 mi WNW 5.8 mph - N/A Fog Fog
3:00 AM 75.2 °F 75.2 °F 100% 29.89 in 0.3 mi NW 6.9 mph - N/A Fog Fog
5:00 AM 77.0 °F 75.2 °F 94% 29.89 in 6.2 mi NW 5.8 mph - N/A   Mostly Cloudy
6:00 AM 76 °F 74 °F 93% 29.92 in 2 mi NE 11.5 mph - - Rain Heavy Rain Showers
6:00 AM 75.2 °F 75.2 °F 100% 29.92 in 2.5 mi NE 11.5 mph - N/A Rain Rain Showers
7:00 AM 75.2 °F 73.4 °F 94% 29.89 in 5.0 mi NE 5.8 mph - N/A Rain Light Rain
8:00 AM 77.0 °F 75.2 °F 94% 29.92 in 5.0 mi North 8.1 mph - N/A Rain Light Rain
8:15 AM 77.0 °F 75.2 °F 94% 29.90 in 0.6 mi North 11.5 mph - N/A Rain Heavy Rain Showers
9:00 AM 76 °F 74 °F 92% 29.91 in 1 mi NNE 12.7 mph - - Rain Heavy Rain
9:00 AM 75.2 °F 73.4 °F 94% 29.90 in 1.2 mi NNE 12.7 mph - N/A Rain Heavy Rain
9:25 AM 75.2 °F 73.4 °F 94% 29.91 in 0.6 mi NE 12.7 mph 25.3 mph N/A Rain Heavy Rain
9:44 AM 75.2 °F 73.4 °F 94% 29.90 in 0.6 mi ENE 21.9 mph 34.5 mph N/A Rain Heavy Rain
10:00 AM 75.2 °F 75.2 °F 100% 29.91 in 1.9 mi ENE 18.4 mph - N/A Rain Heavy Rain
10:20 AM 75.2 °F 75.2 °F 100% 29.90 in 3.1 mi ENE 17.3 mph - N/A Rain Light Rain
10:34 AM 75.2 °F 75.2 °F 100% 29.90 in 4.3 mi ENE 17.3 mph 31.1 mph N/A Rain Light Rain
11:00 AM 77.0 °F 75.2 °F 94% 29.90 in 1.9 mi East 16.1 mph 27.6 mph N/A Rain Rain
11:30 AM 77.0 °F 75.2 °F 94% 29.89 in 1.2 mi East 15.0 mph 27.6 mph N/A Rain Rain
12:00 PM 77 °F 75 °F 90% 29.89 in 2 mi East 13.8 mph - - Rain Rain
12:00 PM 77.0 °F 75.2 °F 94% 29.88 in 2.5 mi East 13.8 mph - N/A Rain Rain
12:22 PM 77.0 °F 75.2 °F 94% 29.87 in 4.3 mi ENE 12.7 mph - N/A Rain Light Rain
1:00 PM 77.0 °F 75.2 °F 94% 29.87 in 2.5 mi East 15.0 mph - N/A Rain Rain
1:22 PM 77.0 °F 75.2 °F 94% 29.87 in 3.1 mi East 15.0 mph - N/A Rain Light Rain
1:40 PM 77.0 °F 75.2 °F 94% 29.86 in 5.0 mi East 15.0 mph 29.9 mph N/A Rain Light Rain
2:00 PM 77.0 °F 75.2 °F 94% 29.86 in 6.2 mi East 15.0 mph - N/A Rain Light Rain
3:00 PM 76 °F 75 °F 94% 29.84 in 3 mi East 16.1 mph - - Rain Light Rain
3:00 PM 77.0 °F 75.2 °F 94% 29.84 in 3.1 mi East 16.1 mph 28.8 mph N/A Rain Light Rain
3:12 PM 77.0 °F 75.2 °F 94% 29.84 in 5.0 mi East 19.6 mph 36.8 mph N/A Rain Light Rain
3:17 PM 77.0 °F 75.2 °F 94% 29.85 in 1.9 mi East 20.7 mph 36.8 mph N/A Rain Rain
3:30 PM - - N/A% - 5.0 mi North - - N/A Rain Rain
3:36 PM 77.0 °F 75.2 °F 94% 29.85 in 0.6 mi ESE 10.4 mph 25.3 mph N/A Rain Heavy Rain
4:00 PM 73.4 °F 73.4 °F 100% 29.85 in 1.9 mi ESE 12.7 mph - N/A Rain Rain Showers
4:30 PM 73.4 °F 73.4 °F 100% 29.85 in 1.6 mi East 15.0 mph 32.2 mph N/A Rain Rain Showers
5:00 PM 75.2 °F 73.4 °F 94% 29.86 in 3.1 mi East 15.0 mph - N/A Rain Rain
6:00 PM 76 °F 75 °F 95% 29.87 in 3 mi East 11.5 mph - - Rain Rain
6:00 PM 75.2 °F 75.2 °F 100% 29.86 in 3.1 mi East 11.5 mph - N/A Rain Rain
9:00 PM 74 °F 72 °F 92% 29.92 in 6 mi ESE 6.9 mph - - Rain Light Rain